Location: Izdebno
(52.6670°N, 16.2170°E)
Time: 06:06:54
(UTC+02:00)

Vanguard 2 Rocket - Pass Details

Date: 29 February 2024
Orbit: 555 x 3307 km, 32.9° (Epoch: 24 April)

Event Time Altitude Azimuth Distance (km) Brightness Sun altitude
Rises 17:07:01 0° 255° (WSW) 4,879 14.2 3.0°
Reaches altitude 10° 17:10:30 10° 243° (WSW) 4,271 12.4 2.5°
Maximum altitude 17:20:01 27° 193° (SSW) 3,952 10.5 1.1°
Drops below altitude 10° 17:33:13 10° 145° (SE) 5,997 10.8 -0.9°
Sets 17:39:27 0° 136° (SE) 7,220 11.1 -1.8°
